Location: Martz Observatory
(42.0083°N, 79.0667°W)
Time: 21:24:33
(UTC-04:00)

GP-B - Pass Details

Date: 26 May 2018
Orbit: 632 x 635 km, 89.8° (Epoch: 17 June)

Event Time Altitude Azimuth Distance (km) Brightness Sun altitude
Rises 05:02:40 0° 355° (N) 2,937 7.0 -7.6°
Reaches altitude 10° 05:04:58 10° 349° (NNW) 2,024 6.1 -7.3°
Maximum altitude 05:09:11 43° 277° (W) 886 3.6 -6.7°
Drops below altitude 10° 05:13:22 10° 206° (SSW) 2,008 5.1 -6.0°
Enters shadow 05:15:11 - 201° (SSW) 2,723 5.8 -5.7°
